Regional Weather Roundup
Issued by NWS Portland, ME

Home | Current Version | Previous Version | Text Only | Print | Product List | Glossary On
Versions: 1 2 3 4 5 6 7 8 9 10 11 12 13 14 15 16 17 18 19 20 21 22 23 24 25 26 27 28 29 30 31 32 33 34 35 36 37 38 39 40 41 42 43 44 45 46 47 48 49 50
000
ASUS41 KGYX 251210
RWRGYX
WEATHER ROUNDUP FOR MAINE AND NEW HAMPSHIRE
NATIONAL WEATHER SERVICE GRAY ME
800 AM EDT MON SEP 25 2017

MEZ002-005-006-010-012-015-018-020-021-024-026-027-029-251300-
MAINE

CITY           SKY/WX    TMP DP  RH WIND       PRES   REMARKS
PORTLAND       MOSUNNY   68  65  90 CALM      30.08R
6HR MIN TEMP:  62; 6HR MAX TEMP:  68; 6HR PCP: TRACE;

SANFORD        SUNNY     68  66  93 CALM      30.09R
BAR HARBOR     MOSUNNY   65  63  93 N6        30.10R
WISCASSET      CLOUDY    65  61  87 CALM      30.09R
6HR MIN TEMP:  60; 6HR MAX TEMP:  65;

ROCKLAND       MOSUNNY   66  63  90 E3        30.08R
FRYEBURG       MOSUNNY   63  63 100 CALM      30.11S
6HR MIN TEMP:  59; 6HR MAX TEMP:  63;

LEWISTONAUBURN SUNNY     66  65  96 CALM      30.10R
AUGUSTA        MOSUNNY   68  66  93 NW6       30.10R FOG
6HR MIN TEMP:  64; 6HR MAX TEMP:  68;

WATERVILLE     SUNNY     69  67  93 NE3       30.07S
BANGOR         MOSUNNY   69  65  86 N3        30.10R FOG
6HR MIN TEMP:  63; 6HR MAX TEMP:  69;

GREENVILLE       N/A     69  68  96 CALM      30.12R
6HR MIN TEMP:  65; 6HR MAX TEMP:  71;

MILLINOCKET    SUNNY     64  63  96 CALM      30.11S
6HR MIN TEMP:  60; 6HR MAX TEMP:  65;

HOULTON        SUNNY     63  62  97 SE3       30.10R
6HR MIN TEMP:  56; 6HR MAX TEMP:  64;

PRESQUE ISLE   MOSUNNY   61  59  93 S3        30.10S
6HR MIN TEMP:  57; 6HR MAX TEMP:  62;

FRENCHVILLE    CLOUDY    57  55  93 SE6       30.08R
6HR MIN TEMP:  55; 6HR MAX TEMP:  59;

CARIBOU        MOSUNNY   62  57  83 S3        30.08S
6HR MIN TEMP:  58; 6HR MAX TEMP:  63;

$$

NHZ002-005-008-009-011-012-014-251300-
NEW HAMPSHIRE

CITY           SKY/WX    TMP DP  RH WIND       PRES   REMARKS
PORTSMOUTH     MOSUNNY   70  67  92 CALM      30.07R
ROCHESTER      SUNNY     70  66  87 NW7       30.08R
6HR MIN TEMP:  65; 6HR MAX TEMP:  70;

NASHUA         SUNNY     69  67  93 NW3       30.09R
MANCHESTER     MOSUNNY   72  68  87 N5        30.07R
6HR MIN TEMP:  69; 6HR MAX TEMP:  72;

CONCORD        SUNNY     66  65  96 E3        30.10R
6HR MIN TEMP:  62; 6HR MAX TEMP:  66;

LACONIA        SUNNY     68  66  93 CALM      30.12R
PLYMOUTH       FOG       63  62  96 CALM      30.12S VSB<1/4
BERLIN         FOG       60  58  92 CALM      30.15R VSB<1/4
6HR MIN TEMP:  56; 6HR MAX TEMP:  61;

WHITEFIELD     FOG       59  57  93 CALM      30.15R VSB 3/4
6HR MIN TEMP:  56; 6HR MAX TEMP:  60;

JAFFREY        SUNNY     64  63  96 CALM      30.13R
6HR MIN TEMP:  61; 6HR MAX TEMP:  64;

KEENE          FOG       64  63  94 CALM      30.12S VSB 3/4
LEBANON        FOG       66  66 100 CALM      30.13R VSB<1/4
6HR MIN TEMP:  62; 6HR MAX TEMP:  66;

MT WASHINGTON  FOG       55  55 100 N12         N/A  VSB 1/8
6HR MIN TEMP:  56; 6HR MAX TEMP:  59;

$$

VTZ005-007-008-251300-
VERMONT

CITY           SKY/WX    TMP DP  RH WIND       PRES   REMARKS
ST JOHNSBURY     N/A     63  63 100 MISG      30.12S
MONTPELIER     FOG       63  63 100 CALM      30.18S VSB 1/4
BURLINGTON     MOSUNNY   69  66  90 CALM      30.10S
$$

MAZ007-012-024-CTZ003-RIZ002-NYZ038-NYZ072-251300-
SOUTHERN NEW ENGLAND AND NY

CITY           SKY/WX    TMP DP  RH WIND       PRES   REMARKS
BOSTON         MOSUNNY   67  65  93 E3        30.08R
WORCESTER      SUNNY     74  65  73 NE8       30.11R
NANTUCKET      FOG       62  62 100 NE5       30.07R VSB 1/4
PROVIDENCE     SUNNY     68  65  90 N3        30.08R
HARTFORD       SUNNY     70  67  90 N6        30.07R
ALBANY         SUNNY     68  65  90 CALM      30.10R
NEW YORK CITY  MOSUNNY   73  67  81 NE3       30.06R
$$

ANZ081-ANZ082-ANZ150-NHZ014-MEZ023>029-251300-
COASTAL MARINE OBSERVATIONS

STATION/POSITION TIME  TEMP    WIND        PRES    WAVE
                       AIR SEA DIR/SP/G            HT/PER
                 (UTC) (F)     (DEG/KT/KT) (MB)    (FT/S)
MOUNT DESERT ROC 1200   60     270/  8/  9 1018.8R
MATINICUS ROCK   1100   61     240/  8/  8 1017.8R
ISLE OF SHOALS   1100   66      CALM  /  1 1018.0R
JEFFREYS LEDGE   1136      63                N/A     4/12
GEORGES BANK BUO 1050   69 69              1017.1    7/12
$$

.............KEY..............
   WCI - WIND CHILL
   TC  - TEMPERATURE IN CELSIUS
   VSB - VISIBILITY IN MILES
   HX  - HEAT INDEX
   FAIR- INDICATES FEW OR NO CLOUDS BELOW 12,000 FT, WITH NO
         SIGNIFICANT WEATHER AND/OR OBSTRUCTIONS TO VISIBILITY.






USA.gov is the U.S. government's official web portal to all federal, state and local government web resources and services.